Location: Street
(51.1247°N, 2.7429°W)
Time: 18:12:06
(UTC+01:00)

CAS-6 - Visible Passes

Search period start: 28 March 2023 00:00
Search period end: 07 April 2023 00:00
Orbit: 612 x 632 km, 97.9° (Epoch: 28 March)

Date Brightness Start Highest point End Pass type
(mag) Time Alt. Az. Time Alt. Az. Time Alt. Az.
28 Mar ? 00:20:56 17° NW 00:20:56 17° NW 00:22:17 10° NW visible
28 Mar ? 21:24:31 10° ENE 21:24:53 10° NE 21:25:22 10° NE visible
28 Mar ? 23:01:43 36° N 23:01:43 36° N 23:04:27 10° N visible
29 Mar ? 00:38:54 13° NW 00:38:54 13° NW 00:39:39 10° NW visible
29 Mar ? 21:42:28 14° NE 21:42:29 14° NE 21:44:46 10° NNE visible
29 Mar ? 23:19:40 38° NNW 23:19:40 38° NNW 23:22:23 10° NNW visible
30 Mar ? 22:00:26 19° NE 22:00:26 19° NE 22:03:13 10° NNE visible
30 Mar ? 23:37:37 34° NNW 23:37:37 34° NNW 23:40:13 10° NNW visible
31 Mar ? 22:18:23 26° NE 22:18:23 26° NE 22:21:28 10° N visible
31 Mar ? 23:55:35 28° NW 23:55:35 28° NW 23:57:58 10° NNW visible
01 Apr ? 22:36:20 34° NE 22:36:20 34° NE 22:39:34 10° N visible
02 Apr ? 00:13:32 22° NW 00:13:32 22° NW 00:15:35 10° NW visible
02 Apr ? 22:54:17 43° NNE 22:54:17 43° NNE 22:57:35 10° N visible
03 Apr ? 00:31:28 16° WNW 00:31:28 16° WNW 00:33:03 10° NW visible
03 Apr ? 21:35:02 12° ENE 21:35:43 13° NE 21:37:35 10° NNE visible
03 Apr ? 23:12:13 50° N 23:12:13 50° N 23:15:31 10° NNW visible
04 Apr ? 00:49:25 12° WNW 00:49:25 12° WNW 00:50:10 10° NW visible
04 Apr ? 21:52:58 17° ENE 21:53:20 17° ENE 21:56:10 10° NNE visible
04 Apr ? 23:30:10 47° NNW 23:30:10 47° NNW 23:33:22 10° NNW visible
05 Apr ? 22:10:54 23° ENE 22:10:59 23° ENE 22:14:28 10° N visible
05 Apr ? 23:48:06 37° NW 23:48:06 37° NW 23:51:08 10° NNW visible
06 Apr ? 22:28:50 32° ENE 22:28:50 32° ENE 22:32:35 10° N visible
